Total_Precipitation_Accumulation
0.05 0.09 0.14 0.19 0.17 0.13 0.09 0.06 0.08 0.11 0.21 0.27 0.35 0.30 0.29 0.31 0.29 0.28 0.21 0.17 0.16 0.16 0.17 0.25 0.30 0.34 0.40 0.48 0.60 0.62 0.71 0.75 0.78 0.88 0.96 1.00 1.03 1.02 0.96 0.95 0.94 0.99 1.02 0.98
0.04 0.07 0.10 0.13 0.16 0.11 0.08 0.07 0.06 0.09 0.20 0.27 0.28 0.23 0.26 0.26 0.30 0.27 0.23 0.21 0.22 0.24 0.24 0.25 0.27 0.33 0.41 0.44 0.55 0.68 0.85 0.93 0.98 1.13 1.23 1.32 1.42 1.49 1.41 1.33 1.35 1.38 1.33 1.24
0.07 0.10 0.11 0.15 0.14 0.12 0.12 0.11 0.10 0.15 0.23 0.25 0.29 0.31 0.43 0.43 0.41 0.42 0.35 0.34 0.33 0.35 0.34 0.31 0.31 0.35 0.41 0.48 0.61 0.77 0.96 1.13 1.24 1.39 1.52 1.64 1.72 1.76 1.71 1.72 1.76 1.77 1.66 1.48
0.12 0.16 0.20 0.17 0.18 0.15 0.16 0.18 0.18 0.22 0.29 0.37 0.47 0.53 0.62 0.66 0.55 0.49 0.41 0.36 0.35 0.42 0.44 0.40 0.44 0.50 0.58 0.69 0.83 1.01 1.17 1.34 1.52 1.55 1.58 1.65 1.69 1.66 1.68 1.78 1.82 1.78 1.68 1.55
0.22 0.23 0.21 0.22 0.25 0.25 0.27 0.35 0.35 0.41 0.47 0.58 0.63 0.56 0.54 0.51 0.44 0.36 0.34 0.36 0.36 0.42 0.49 0.55 0.56 0.61 0.69 0.73 0.84 1.03 1.19 1.28 1.35 1.46 1.56 1.60 1.61 1.66 1.70 1.71 1.61 1.49 1.44 1.44
0.35 0.36 0.35 0.34 0.39 0.35 0.36 0.63 0.60 0.55 0.57 0.61 0.64 0.74 0.66 0.50 0.42 0.40 0.37 0.36 0.38 0.40 0.44 0.53 0.61 0.63 0.65 0.73 0.85 1.04 1.19 1.22 1.23 1.36 1.48 1.55 1.58 1.61 1.57 1.54 1.50 1.46 1.39 1.39
0.49 0.51 0.42 0.40 0.35 0.34 0.55 0.72 0.63 0.65 0.68 0.69 0.76 0.81 0.72 0.55 0.46 0.41 0.40 0.37 0.39 0.45 0.45 0.48 0.57 0.62 0.70 0.80 0.88 0.94 1.03 1.12 1.19 1.34 1.45 1.47 1.53 1.53 1.53 1.52 1.54 1.54 1.47 1.38
0.63 0.75 0.71 0.53 0.43 0.56 0.70 0.60 0.68 0.71 0.66 0.67 0.66 0.59 0.53 0.48 0.53 0.49 0.42 0.40 0.41 0.48 0.58 0.60 0.61 0.62 0.67 0.70 0.71 0.77 0.83 0.89 0.94 1.04 1.17 1.23 1.32 1.33 1.37 1.36 1.32 1.30 1.28 1.21
0.81 0.86 0.71 0.63 0.65 0.67 0.64 0.56 0.60 0.66 0.65 0.67 0.67 0.59 0.46 0.42 0.42 0.49 0.48 0.45 0.45 0.49 0.53 0.56 0.61 0.66 0.74 0.73 0.70 0.70 0.71 0.72 0.73 0.78 0.94 1.10 1.16 1.14 1.16 1.17 1.16 1.13 1.12 1.10
0.96 0.98 0.87 0.81 0.77 0.68 0.66 0.63 0.58 0.64 0.73 0.74 0.71 0.60 0.50 0.44 0.36 0.33 0.33 0.32 0.38 0.42 0.49 0.54 0.53 0.56 0.63 0.67 0.68 0.72 0.73 0.73 0.74 0.77 0.87 1.12 1.25 1.19 1.13 1.11 1.08 1.06 1.01 1.01
0.98 1.06 0.90 0.81 0.78 0.77 0.74 0.69 0.66 0.67 0.75 0.75 0.65 0.61 0.55 0.44 0.34 0.29 0.27 0.26 0.29 0.33 0.36 0.37 0.37 0.41 0.45 0.50 0.58 0.62 0.60 0.58 0.58 0.65 0.77 0.97 1.12 1.13 1.00 0.97 0.96 0.96 0.93 0.90
0.93 0.89 0.91 0.92 0.86 0.82 0.84 0.83 0.77 0.73 0.78 0.76 0.66 0.58 0.51 0.40 0.31 0.27 0.26 0.26 0.29 0.33 0.36 0.38 0.39 0.44 0.50 0.57 0.64 0.66 0.62 0.57 0.56 0.58 0.67 0.86 1.07 1.12 0.92 0.75 0.73 0.73 0.68 0.65
0.75 0.73 0.79 0.84 0.83 0.88 0.93 0.90 0.87 0.83 0.79 0.72 0.70 0.60 0.45 0.37 0.32 0.30 0.28 0.28 0.31 0.33 0.37 0.43 0.46 0.42 0.43 0.51 0.60 0.65 0.62 0.57 0.53 0.53 0.57 0.69 0.92 1.15 1.17 0.91 0.69 0.60 0.48 0.39
0.66 0.68 0.78 0.83 0.86 0.92 0.93 0.86 0.82 0.84 0.80 0.73 0.66 0.59 0.49 0.42 0.37 0.34 0.35 0.37 0.41 0.44 0.45 0.49 0.48 0.44 0.42 0.47 0.52 0.56 0.58 0.54 0.49 0.47 0.48 0.56 0.78 1.05 1.24 1.21 1.04 0.78 0.49 0.32
0.69 0.76 0.77 0.71 0.78 0.80 0.80 0.73 0.69 0.76 0.74 0.68 0.60 0.51 0.46 0.45 0.46 0.46 0.46 0.52 0.59 0.58 0.52 0.50 0.47 0.43 0.42 0.46 0.48 0.48 0.51 0.50 0.47 0.46 0.47 0.51 0.68 0.94 1.14 1.21 1.15 1.03 0.74 0.42
0.64 0.66 0.61 0.60 0.70 0.77 0.77 0.69 0.63 0.68 0.66 0.61 0.59 0.54 0.49 0.46 0.46 0.47 0.52 0.62 0.77 0.78 0.65 0.56 0.52 0.47 0.45 0.46 0.45 0.41 0.41 0.38 0.32 0.33 0.38 0.42 0.52 0.74 0.98 1.12 1.06 1.01 0.85 0.50
0.64 0.60 0.57 0.56 0.64 0.75 0.77 0.72 0.68 0.68 0.67 0.65 0.64 0.60 0.58 0.58 0.56 0.58 0.67 0.73 0.76 0.73 0.65 0.60 0.53 0.47 0.45 0.46 0.44 0.39 0.35 0.30 0.22 0.21 0.30 0.36 0.42 0.59 0.83 1.01 0.97 0.89 0.77 0.47
0.54 0.49 0.47 0.45 0.51 0.60 0.63 0.59 0.59 0.59 0.62 0.67 0.67 0.62 0.65 0.70 0.74 0.84 0.89 0.88 0.79 0.64 0.56 0.54 0.48 0.42 0.40 0.37 0.34 0.32 0.30 0.30 0.26 0.27 0.32 0.35 0.39 0.56 0.78 0.92 0.89 0.84 0.75 0.52
0.39 0.37 0.37 0.33 0.35 0.37 0.38 0.39 0.39 0.38 0.40 0.47 0.50 0.51 0.54 0.58 0.65 0.78 0.83 0.92 0.96 0.81 0.58 0.44 0.40 0.35 0.33 0.26 0.24 0.23 0.23 0.25 0.25 0.27 0.31 0.30 0.40 0.58 0.73 0.81 0.79 0.75 0.65 0.54
0.31 0.30 0.29 0.28 0.27 0.26 0.27 0.27 0.26 0.26 0.30 0.35 0.35 0.33 0.35 0.41 0.53 0.70 0.81 0.90 0.95 0.85 0.63 0.45 0.32 0.26 0.20 0.15 0.15 0.19 0.22 0.25 0.28 0.30 0.32 0.39 0.49 0.62 0.68 0.67 0.66 0.64 0.61 0.60
0.28 0.27 0.23 0.22 0.19 0.16 0.15 0.14 0.13 0.16 0.22 0.24 0.22 0.21 0.26 0.32 0.42 0.61 0.91 1.09 0.95 0.75 0.58 0.45 0.32 0.21 0.15 0.13 0.12 0.15 0.20 0.23 0.29 0.35 0.39 0.45 0.54 0.63 0.65 0.63 0.58 0.55 0.56 0.59
0.29 0.25 0.21 0.18 0.13 0.12 0.12 0.11 0.10 0.11 0.14 0.16 0.16 0.17 0.22 0.30 0.41 0.52 0.70 1.00 1.03 0.90 0.64 0.45 0.32 0.21 0.16 0.14 0.12 0.15 0.17 0.20 0.26 0.31 0.35 0.39 0.49 0.58 0.57 0.52 0.48 0.48 0.52 0.58
0.29 0.24 0.20 0.16 0.13 0.11 0.09 0.09 0.09 0.10 0.11 0.13 0.13 0.15 0.20 0.29 0.42 0.68 0.81 0.76 0.82 0.92 0.70 0.49 0.39 0.29 0.19 0.15 0.17 0.19 0.20 0.24 0.31 0.34 0.32 0.35 0.38 0.44 0.48 0.45 0.47 0.48 0.53 0.55
0.28 0.22 0.17 0.13 0.12 0.11 0.12 0.10 0.10 0.11 0.11 0.10 0.09 0.11 0.17 0.29 0.38 0.51 0.68 0.74 0.76 0.81 0.64 0.48 0.38 0.29 0.23 0.21 0.25 0.29 0.35 0.41 0.43 0.37 0.32 0.33 0.35 0.40 0.46 0.45 0.43 0.46 0.50 0.52
0.24 0.17 0.13 0.11 0.11 0.11 0.10 0.08 0.10 0.11 0.10 0.11 0.11 0.12 0.14 0.22 0.38 0.53 0.63 0.69 0.79 0.84 0.72 0.56 0.43 0.37 0.32 0.34 0.39 0.48 0.55 0.48 0.41 0.36 0.32 0.32 0.36 0.41 0.43 0.46 0.49 0.49 0.49 0.49
0.18 0.14 0.12 0.10 0.09 0.09 0.08 0.08 0.10 0.11 0.11 0.13 0.15 0.15 0.19 0.24 0.33 0.44 0.55 0.60 0.67 0.77 0.71 0.54 0.38 0.35 0.35 0.41 0.47 0.51 0.50 0.45 0.39 0.37 0.36 0.37 0.41 0.44 0.43 0.46 0.50 0.49 0.49 0.50
0.14 0.12 0.13 0.11 0.10 0.10 0.10 0.13 0.14 0.15 0.17 0.21 0.25 0.27 0.30 0.34 0.38 0.44 0.50 0.56 0.58 0.58 0.53 0.42 0.32 0.30 0.30 0.32 0.36 0.40 0.41 0.41 0.40 0.40 0.40 0.42 0.44 0.45 0.43 0.40 0.40 0.40 0.39 0.40